Location: Ellerstadt
(49.4644°N, 8.2615°E)
Time: 05:38:06
(UTC+00:00)

IRIDIUM 100 - Pass Details

Date: 25 September 2021
Orbit: 776 x 779 km, 86.4° (Epoch: 15 October)

Event Time Altitude Azimuth Distance (km) Brightness Sun altitude
Exits shadow 00:48:02 25° 22° (NNE) 1,526 ? -37.8°
Drops below altitude 10° 00:50:18 10° 12° (NNE) 2,342 ? -37.6°
Sets 00:52:42 0° 8° (N) 3,274 ? -37.4°
